Binghamton, NY

6:22 AM EDT on July 24, 2017 (GMT -0400)
Binghamton Regional-Link

Weather History for KBGM - December, 2011

Change the Weather History Date:

Wednesday, December 14, 2011

  Actual Average Record
Temperature  
Mean Temperature 38 °F 28 °F  
Max Temperature 44 °F 34 °F 61 °F (2015)
Min Temperature 31 °F 22 °F -6 °F (2005)
Degree Days  
Heating Degree Days 27 37  
Month to date heating degree days 427 491  
Since 1 July heating degree days 1653 2066  
Cooling Degree Days 0 0  
Month to date cooling degree days 0 0  
Year to date cooling degree days 527 381  
Moisture  
Dew Point 29 °F    
Average Humidity 73    
Maximum Humidity 92    
Minimum Humidity 53    
Precipitation  
Precipitation T in 0.08 in 1.06 in (1956)
Month to date precipitation 1.00 1.40  
Year to date precipitation 65.94 37.87  
Snow  
Snow 0.00 in 0.50 in 11.50 in (2003)
Month to date snowfall 3.9 7.2  
Since 1 July snowfall 6.7 14.0  
Snow Depth T in    
Sea Level Pressure  
Sea Level Pressure 30.32 in    
Wind  
Wind Speed 6 mph (SSW)    
Max Wind Speed 16 mph    
Max Gust Speed 24 mph    
Visibility 8 miles    
Events Rain    
T = Trace of Precipitation, MM = Missing Value Source: NWS Daily Summary

Daily Weather History Graph

Daily Weather History Graph

Search for Another Location

Airport or City:

Trip Planner

Search our weather history database for the weather conditions in past years. The results will help you decide how hot, cold, wet, or windy it might be!

Date:

Astronomy

Dec. 14, 2011 Rise Set
Actual Time 7:24 AM EST 4:32 PM EST
Civil Twilight 6:52 AM EST 5:04 PM EST
Nautical Twilight 6:17 AM EST 5:39 PM EST
Astronomical Twilight 5:43 AM EST 6:13 PM EST
Moon 8:53 PM EST (12/14) 10:05 AM EST (12/14)
Length of Visible Light 10h 11m
Length of Day
9h 07m
Waning Gibbous, 83% of the Moon is Illuminated
Dec 14
Waning Gibbous
Dec 17
Last Quarter
Dec 24
New
Jan 1
First Quarter
Jan 9
Full

Hourly Weather History & Observations

Time (EST) Temp. Windchill Dew Point Humidity Pressure Visibility Wind Dir Wind Speed Gust Speed Precip Events Conditions
12:53 AM 32.0 °F 28.7 °F 28.0 °F 85% 30.40 in 6.0 mi WSW 3.5 mph - N/A   Overcast
1:53 AM 33.1 °F - 28.9 °F 85% 30.39 in 7.0 mi Calm Calm - N/A   Overcast
2:53 AM 30.9 °F 27.5 °F 27.0 °F 85% 30.40 in 6.0 mi West 3.5 mph - N/A   Overcast
3:53 AM 32.0 °F - 28.0 °F 85% 30.37 in 6.0 mi Calm Calm - N/A   Overcast
4:53 AM 32.0 °F 27.5 °F 28.0 °F 85% 30.38 in 7.0 mi WSW 4.6 mph - N/A   Overcast
5:53 AM 32.0 °F - 28.0 °F 85% 30.41 in 6.0 mi Calm Calm - N/A   Overcast
6:53 AM 32.0 °F - 28.0 °F 85% 30.40 in 6.0 mi Calm Calm - N/A   Overcast
7:53 AM 30.9 °F - 28.0 °F 89% 30.40 in 4.0 mi Calm Calm - N/A   Overcast
8:53 AM 33.1 °F 30.0 °F 28.9 °F 85% 30.40 in 4.0 mi South 3.5 mph - N/A   Overcast
9:53 AM 37.0 °F - 30.9 °F 79% 30.40 in 5.0 mi Calm Calm - N/A   Haze
10:53 AM 39.0 °F 34.0 °F 30.9 °F 73% 30.39 in 7.0 mi South 6.9 mph - N/A   Clear
11:53 AM 41.0 °F 38.0 °F 30.9 °F 67% 30.36 in 9.0 mi Variable 4.6 mph - N/A   Clear
12:53 PM 43.0 °F 38.2 °F 30.0 °F 60% 30.33 in 10.0 mi SSW 8.1 mph - N/A   Clear
1:53 PM 44.1 °F 38.6 °F 28.9 °F 55% 30.30 in 10.0 mi SW 10.4 mph - N/A   Clear
2:53 PM 43.0 °F 38.2 °F 28.0 °F 56% 30.30 in 10.0 mi South 8.1 mph - N/A   Mostly Cloudy
3:53 PM 42.1 °F 37.1 °F 28.0 °F 58% 30.30 in 10.0 mi South 8.1 mph - N/A   Overcast
4:11 PM 41.0 °F 37.1 °F 28.4 °F 61% 30.25 in 10.0 mi South 5.8 mph - N/A   Overcast
4:53 PM 41.0 °F 38.0 °F 28.9 °F 62% 30.31 in 10.0 mi South 4.6 mph - N/A   Overcast
5:53 PM 39.0 °F 31.4 °F 28.0 °F 65% 30.31 in 10.0 mi SSW 12.7 mph 18.4 mph N/A   Overcast
6:37 PM 37.4 °F 32.1 °F 28.4 °F 70% 30.24 in 10.0 mi South 6.9 mph - 0.00 in   Overcast
6:53 PM 39.0 °F 32.8 °F 28.9 °F 67% 30.29 in 10.0 mi South 9.2 mph - 0.00 in   Overcast
7:53 PM 37.0 °F 29.8 °F 33.1 °F 86% 30.26 in 9.0 mi South 10.4 mph 18.4 mph N/A   Overcast
8:53 PM 37.9 °F 31.5 °F 32.0 °F 79% 30.23 in 6.0 mi South 9.2 mph - 0.00 in Rain Light Rain
9:53 PM 37.9 °F 30.9 °F 32.0 °F 79% 30.22 in 8.0 mi South 10.4 mph 19.6 mph 0.00 in   Overcast
10:53 PM 39.0 °F 31.0 °F 32.0 °F 76% 30.19 in 8.0 mi South 13.8 mph 20.7 mph N/A   Overcast
11:53 PM 39.0 °F 32.3 °F 32.0 °F 76% 30.18 in 8.0 mi South 10.4 mph 18.4 mph N/A   Overcast